Theta_e
318 317 318 319 321 322 322 323 322 322 322 321 321 320 319 320 319 320 318 316 316 316 316 315 315 314 314 315 316 318 319 317 314 314 314 315 314 314 313 313 314 314 314 315 315 316 316 317 315 314 318 319 318 318 318 320 331 342 343 338 327 322 318 318 322 321 320 318 316 314 314 318 315 307 304 305 303 302 302 301 301 300 299 300 300 300 298 298
318 317 316 317 319 321 322 323 323 323 323 322 321 321 320 320 320 320 320 316 315 317 316 315 315 314 315 315 316 318 319 319 316 314 314 314 313 313 312 312 314 315 314 314 315 316 318 320 314 315 324 321 316 320 321 318 327 341 338 328 323 325 319 317 323 320 316 316 316 314 313 316 316 309 307 309 304 301 304 301 300 301 300 299 299 298 298 297
316 316 315 316 317 319 322 323 323 323 323 322 321 321 320 320 320 319 320 318 315 316 316 316 315 314 315 316 317 317 317 319 318 316 315 313 312 312 311 313 315 315 314 313 315 314 316 317 311 315 325 321 318 323 324 319 321 329 330 322 324 330 319 314 319 318 317 317 318 315 311 314 313 308 308 310 305 303 305 302 301 301 300 300 299 297 297 297
314 315 315 315 316 317 320 321 322 323 322 322 321 320 319 319 320 318 318 319 316 316 316 316 315 315 315 316 318 317 317 320 319 316 314 312 312 311 312 313 314 315 314 313 314 314 314 312 311 318 322 321 324 324 321 320 318 318 321 321 323 323 317 315 317 318 318 315 318 316 312 313 310 307 309 308 307 307 305 302 303 302 299 300 299 296 295 296
313 314 314 316 316 317 318 319 320 320 320 320 320 319 318 318 319 318 317 319 317 315 316 316 316 316 315 317 318 315 318 323 318 315 314 312 311 311 311 312 313 314 313 313 313 313 313 311 315 325 323 320 326 325 319 318 317 315 317 321 323 320 314 316 317 317 317 313 316 316 313 312 308 308 307 308 313 312 306 302 302 301 298 299 298 296 295 294
313 314 314 316 317 317 317 318 318 319 319 319 319 319 318 318 318 317 316 318 318 315 316 316 316 316 315 317 317 315 319 323 317 314 314 312 311 311 311 310 311 313 313 314 312 312 316 315 320 326 324 321 320 319 318 317 316 316 317 317 321 319 313 316 317 316 316 314 315 315 312 310 308 309 306 307 313 309 304 303 301 299 297 297 296 295 296 295
313 313 314 316 316 317 317 318 318 318 318 318 318 318 318 317 318 317 316 317 318 315 316 316 316 317 315 315 316 319 322 321 316 314 313 312 312 312 311 310 310 312 314 313 311 315 321 322 322 320 320 321 316 316 317 316 316 317 319 316 316 316 314 316 316 316 317 315 315 313 311 310 312 311 305 306 306 302 300 300 298 297 296 296 296 296 296 295
311 313 314 315 316 317 317 318 318 318 318 318 318 318 318 317 317 317 316 317 317 315 316 316 317 317 315 316 319 324 325 319 315 315 313 312 312 312 312 311 310 312 314 313 312 315 320 321 320 316 318 318 315 316 315 315 317 317 318 318 316 314 315 316 315 316 317 314 312 311 312 311 311 308 306 306 303 299 298 297 296 296 295 296 297 298 295 294
310 311 313 314 316 317 317 318 318 318 318 318 318 318 318 317 316 316 316 316 316 315 316 316 317 317 317 318 321 327 324 316 314 315 313 312 312 312 312 311 310 311 312 313 311 312 316 317 316 315 316 316 313 315 315 314 316 315 317 319 317 314 314 314 314 316 316 313 311 311 313 310 306 306 307 305 300 298 298 297 297 297 297 297 298 297 294 293
309 310 311 313 314 316 317 317 318 318 318 318 318 318 317 317 316 315 315 316 316 315 316 316 316 318 318 316 319 324 321 315 313 313 313 313 312 313 313 311 310 311 311 312 311 312 313 314 314 314 316 316 313 313 313 312 313 313 315 317 315 314 313 312 313 316 314 311 310 311 314 310 304 307 310 303 298 298 298 298 297 296 297 297 297 296 294 293
308 308 309 311 313 315 316 317 318 318 318 318 317 317 316 316 315 314 315 316 316 315 316 317 315 316 317 316 321 324 318 313 313 312 312 312 312 312 313 312 311 310 311 312 312 311 312 312 311 312 315 314 314 313 312 311 311 312 313 314 316 316 315 312 312 313 312 309 311 314 313 308 305 310 313 303 297 298 297 297 296 296 297 296 296 297 294 293
308 308 309 310 312 314 315 316 317 318 318 317 317 316 315 315 314 314 315 315 315 314 316 316 315 316 316 316 322 322 316 313 312 311 311 311 311 312 313 312 311 310 310 312 312 311 310 311 311 313 313 312 314 313 311 311 311 312 312 313 317 320 318 313 311 311 310 311 314 316 313 310 309 311 310 301 297 297 297 297 296 296 296 295 296 296 294 293
309 308 309 310 311 312 313 315 316 317 317 317 317 315 314 314 313 313 315 315 314 314 316 315 314 316 317 321 320 316 313 312 310 310 310 310 310 314 314 311 311 311 311 311 311 310 310 310 311 312 311 312 315 312 311 312 312 312 311 313 317 321 320 312 310 311 309 312 314 313 313 314 314 311 305 299 297 297 297 297 296 296 296 295 295 296 296 293
311 310 310 310 310 311 312 313 315 316 316 317 316 315 314 312 313 313 314 316 314 314 315 314 315 316 318 321 316 312 313 311 310 311 310 309 310 314 314 310 311 311 311 311 310 310 310 310 309 310 311 311 311 308 312 319 317 314 311 318 321 317 324 320 312 313 310 312 312 310 314 314 314 313 305 298 297 297 298 297 296 296 296 295 295 296 297 294
311 311 311 310 311 310 310 311 313 314 315 316 315 314 313 311 312 313 314 316 315 314 316 315 316 317 319 320 314 313 313 311 312 312 311 311 309 312 312 309 311 312 311 311 310 311 310 310 311 313 312 309 312 314 319 325 325 320 313 324 327 316 325 325 312 313 312 311 309 310 315 313 313 314 304 298 297 297 298 297 296 296 295 295 295 295 296 295
312 311 311 311 311 310 310 310 311 313 314 315 315 314 312 311 313 313 313 315 315 315 316 318 316 316 319 318 314 313 313 313 314 313 312 312 309 310 310 309 312 312 312 311 311 311 309 313 313 311 312 310 319 328 324 324 330 328 318 320 328 319 318 318 311 312 313 311 309 310 315 313 313 312 302 298 297 297 298 298 296 296 295 295 295 295 296 296
313 312 311 311 311 311 310 310 311 313 314 314 315 313 311 311 313 313 314 314 316 316 316 319 316 315 318 315 315 316 314 313 314 314 313 312 310 309 309 311 311 310 312 310 311 312 309 313 311 310 318 313 318 329 324 324 330 330 323 318 323 319 313 314 313 311 311 311 311 311 312 311 312 311 302 298 298 297 298 298 297 296 295 295 295 295 295 295
313 313 312 312 312 312 311 311 312 314 315 315 315 313 311 312 311 313 316 315 315 315 315 317 314 314 315 314 316 317 314 313 315 315 313 313 311 309 310 310 308 308 314 313 311 314 312 316 318 321 329 319 316 324 324 328 327 320 321 317 317 316 311 313 313 311 310 310 312 312 312 310 310 311 306 299 298 298 298 298 297 296 295 295 295 295 295 295
312 313 313 312 312 312 312 312 312 315 317 316 314 313 310 312 313 314 314 312 314 315 314 318 317 315 314 315 316 314 314 314 315 314 312 313 310 310 311 310 311 313 317 321 318 317 316 320 325 323 328 325 320 318 319 330 324 312 315 315 313 313 311 310 310 309 309 309 310 310 310 310 308 309 309 302 298 298 298 298 298 296 295 295 294 295 294 295
311 312 313 312 312 313 312 312 313 315 318 317 314 313 313 316 319 320 318 314 314 313 315 320 319 316 314 316 316 313 314 313 313 313 311 312 309 310 311 311 319 321 320 326 322 316 318 323 325 321 322 326 324 316 314 321 317 309 312 313 311 311 310 309 308 308 307 308 310 309 308 309 308 308 309 305 300 298 298 298 298 297 296 295 295 295 294 294
311 311 312 312 312 312 313 313 313 315 317 316 313 311 312 313 314 316 317 319 313 307 312 316 313 314 313 313 315 313 314 313 312 312 311 311 309 311 312 312 320 325 322 321 318 319 321 322 323 324 323 319 318 314 311 312 311 309 311 312 311 311 310 308 308 308 306 308 311 311 309 309 308 308 308 307 303 300 299 298 298 297 296 295 295 295 294 294
310 310 311 312 312 312 313 313 314 316 317 315 311 309 307 308 311 310 310 318 316 307 311 313 310 315 313 311 314 312 312 315 314 313 311 309 310 312 315 316 320 326 321 315 320 329 326 325 325 322 317 312 311 310 309 310 310 310 310 311 312 311 312 311 309 309 308 308 311 313 310 308 308 308 307 307 305 302 300 299 300 299 297 296 295 294 294 294
310 310 310 312 312 311 313 314 315 315 315 313 310 307 306 308 311 310 309 317 320 315 316 318 317 319 317 313 313 312 313 315 315 316 311 309 312 313 315 319 321 323 318 315 323 326 323 329 328 316 310 309 310 311 310 310 310 311 310 311 313 312 313 314 313 313 310 309 310 310 308 306 306 307 307 307 305 303 302 300 300 300 298 297 296 295 294 294
310 309 309 311 311 312 314 313 314 314 314 312 309 306 306 309 310 311 314 317 320 319 317 317 317 320 320 313 311 313 314 314 314 313 309 310 313 311 314 321 321 321 320 320 325 323 320 321 315 311 311 310 312 312 311 310 312 317 315 311 313 313 312 312 312 311 311 313 311 307 309 311 308 307 307 307 304 303 302 301 300 300 299 298 297 296 295 294
311 309 309 310 310 313 313 312 312 312 315 314 310 306 306 310 310 310 315 316 317 319 315 313 315 319 317 311 311 312 312 313 313 310 307 309 313 311 312 315 316 322 322 317 318 320 320 313 307 311 312 310 311 313 316 313 313 321 321 314 313 313 311 312 312 310 313 317 310 307 315 319 312 308 308 307 306 303 302 301 300 299 298 298 297 296 295 294
311 309 309 310 311 313 313 313 312 311 315 315 311 307 306 310 310 310 317 317 315 318 317 314 316 316 313 311 312 311 314 316 310 307 306 307 310 311 314 313 312 319 320 314 315 319 315 308 310 315 315 313 312 315 319 315 312 317 318 314 313 312 311 312 311 311 315 317 308 307 314 315 311 310 310 309 308 306 303 301 300 299 298 297 296 296 294 293
311 309 310 311 310 314 314 314 312 312 315 315 310 306 305 309 309 309 314 313 313 320 321 316 314 314 314 312 310 312 318 317 308 305 306 307 307 309 316 317 313 313 313 313 319 320 312 309 313 315 315 317 314 318 320 314 315 319 315 314 314 311 311 311 308 308 313 311 307 308 309 309 309 309 310 309 309 308 305 302 300 298 298 297 296 295 294 292
310 309 310 310 310 314 314 312 310 311 314 313 307 305 306 308 310 313 312 307 313 321 321 318 313 312 313 310 309 313 315 313 313 309 304 305 307 308 315 318 320 318 311 314 323 320 312 312 317 316 315 316 318 325 321 312 317 319 311 309 309 306 308 307 305 308 309 307 308 309 306 309 312 310 308 305 306 308 306 305 302 299 297 296 296 295 293 292
310 310 311 310 310 313 314 312 308 309 311 308 305 307 306 305 309 315 312 307 315 321 317 316 313 312 314 311 312 315 312 312 314 309 304 305 306 309 312 314 321 319 310 313 322 319 312 311 316 318 316 316 320 323 317 313 315 312 308 310 312 312 311 308 306 309 311 310 312 311 307 311 317 315 310 305 306 309 306 305 303 300 298 296 296 294 292 292
311 312 312 310 311 314 314 311 307 309 311 306 304 307 307 310 315 314 309 309 317 320 314 313 314 314 315 314 315 315 313 313 310 307 307 307 307 308 307 308 314 317 317 317 319 317 312 306 309 314 314 316 319 313 308 310 310 308 311 314 317 316 313 311 309 311 315 317 317 313 308 310 316 316 311 310 312 312 311 309 306 302 299 296 295 294 292 291
311 312 311 310 311 314 313 309 308 309 307 304 305 308 310 318 322 316 312 311 311 316 316 315 315 315 316 319 320 315 313 314 310 308 310 308 309 310 308 310 313 320 327 325 318 317 313 307 310 313 311 312 314 310 306 308 309 311 315 316 317 318 318 317 315 313 318 322 319 312 307 308 313 314 310 311 311 309 310 312 311 306 300 296 295 293 291 291
310 311 312 311 311 313 313 311 310 307 303 303 307 311 314 316 317 316 317 315 309 314 320 320 316 315 316 318 321 317 314 316 312 309 313 312 312 313 313 318 318 319 327 325 321 321 317 313 312 311 308 308 313 314 309 310 311 312 314 317 320 322 324 325 319 316 320 321 313 305 306 308 309 311 309 310 310 308 306 307 308 307 301 296 294 293 291 290
310 311 312 311 311 314 315 313 311 307 303 304 309 316 318 314 312 313 316 315 311 314 319 321 319 318 317 318 323 320 315 318 314 309 314 314 312 314 315 319 318 315 319 320 320 321 321 318 311 309 310 310 312 313 313 315 313 309 311 319 324 323 325 325 321 319 320 319 309 301 306 311 310 312 310 308 309 307 304 302 302 303 300 297 294 292 291 290
310 311 312 311 310 313 315 314 313 308 303 306 312 318 318 314 313 314 315 313 312 315 319 320 319 317 318 320 325 322 316 318 315 310 314 314 313 318 317 315 314 316 320 318 318 321 321 320 315 313 313 311 309 311 318 322 314 308 312 318 322 325 326 325 324 323 319 318 311 303 308 315 313 312 310 306 305 302 299 297 296 299 299 297 294 291 291 289
310 311 312 312 311 312 314 315 316 310 304 307 313 316 315 313 314 317 317 316 315 318 319 319 319 318 319 322 324 321 317 317 316 313 316 316 317 322 322 318 315 319 323 319 319 320 316 319 318 310 307 307 308 309 314 320 316 309 309 314 318 322 323 321 321 320 314 313 312 307 310 313 309 308 305 302 299 297 296 295 294 298 297 295 293 291 290 289
311 312 313 313 311 312 313 315 318 312 305 306 312 315 313 312 317 319 317 316 318 321 319 319 321 320 321 325 325 320 315 315 316 315 317 317 318 320 323 324 317 315 317 316 320 320 315 319 314 305 305 305 303 305 308 315 317 310 309 314 314 312 316 319 318 313 309 311 314 311 310 309 308 309 303 299 299 298 297 295 294 296 294 293 292 290 290 289
311 312 312 312 312 312 312 315 317 311 306 306 311 314 312 312 318 319 316 315 317 323 321 317 319 321 324 325 324 322 317 315 316 317 320 319 317 318 319 322 317 312 314 315 318 319 315 317 312 307 311 305 297 301 305 306 310 312 314 314 308 306 310 315 316 313 309 311 315 312 310 309 311 310 302 298 300 300 298 294 292 293 292 292 292 290 290 289
311 312 312 311 312 312 312 315 314 308 305 307 310 314 315 312 313 314 319 318 315 320 321 315 316 319 323 325 325 323 318 318 318 319 322 319 316 318 317 318 315 311 313 312 314 317 313 313 313 305 307 304 299 304 309 304 302 309 312 307 307 311 312 310 312 315 314 313 315 315 313 311 313 314 309 304 304 303 300 294 291 292 292 291 291 290 289 289
312 312 311 311 312 311 311 314 311 306 308 311 310 314 316 313 311 313 320 320 316 319 319 316 313 313 319 323 324 322 316 317 319 317 319 318 317 318 315 316 315 310 311 311 314 316 311 313 316 304 301 304 303 307 315 309 301 302 303 302 305 311 312 311 311 313 315 315 314 315 315 313 314 318 317 311 307 306 301 294 292 293 291 291 291 289 289 289
312 312 312 310 310 311 311 312 309 308 313 315 313 314 314 314 313 313 316 315 315 316 317 319 316 313 317 318 319 321 318 317 318 317 318 316 316 316 312 313 317 312 310 311 313 314 311 313 315 307 301 305 307 308 313 313 307 304 305 304 303 303 307 311 308 307 312 314 313 314 314 314 314 315 316 313 308 306 303 297 293 292 291 291 290 289 289 288
312 313 313 310 310 311 311 311 312 313 317 317 316 315 314 314 315 314 313 312 313 313 315 321 321 316 317 315 315 318 317 318 317 315 317 316 314 315 311 312 317 313 310 311 312 313 314 314 315 311 306 307 311 309 306 309 310 308 308 307 305 304 306 310 309 306 308 310 313 315 314 313 311 310 312 312 310 306 302 298 294 292 291 291 289 289 289 288
313 314 312 310 311 311 311 314 315 315 317 317 317 316 315 314 315 315 314 312 311 311 312 316 318 316 315 315 317 318 317 321 319 314 316 316 312 313 313 313 314 312 311 314 312 312 315 315 314 313 311 309 307 304 302 303 304 304 306 307 306 306 307 310 312 310 307 306 309 311 312 312 309 307 308 308 308 304 299 296 295 293 291 290 289 289 289 288
314 313 309 308 310 311 312 315 316 315 316 315 315 315 314 314 315 314 314 313 312 312 311 312 313 313 313 313 316 316 315 318 319 316 317 317 313 312 314 314 312 311 312 313 310 310 312 314 312 313 315 312 306 303 303 301 299 302 305 305 305 306 306 309 310 312 312 309 307 309 310 311 307 304 302 301 300 298 295 294 295 294 291 290 289 289 288 288
315 312 308 307 310 311 313 314 314 314 314 313 313 314 313 313 314 314 314 313 314 314 312 311 311 312 313 313 313 314 314 314 315 315 315 317 315 313 313 314 311 310 312 312 311 311 312 314 314 313 315 316 311 307 307 304 300 303 305 304 304 305 306 308 307 308 310 309 308 309 311 312 307 302 299 298 298 297 294 293 293 293 292 290 289 288 288 288
314 313 310 307 308 310 313 313 311 311 312 312 313 313 312 313 313 313 313 312 313 314 313 313 314 313 313 314 313 313 313 312 312 315 314 314 314 311 310 312 310 309 313 315 312 310 313 316 314 312 313 314 312 312 315 310 303 302 303 303 303 304 305 307 307 308 309 309 309 309 310 312 308 304 301 300 300 299 295 293 292 292 292 290 288 289 288 287
315 315 313 309 307 309 311 312 311 310 311 311 312 311 311 312 312 312 313 313 312 312 313 315 316 313 313 314 312 312 313 311 312 315 315 317 317 309 305 306 307 309 312 313 311 312 317 317 312 311 313 312 310 311 314 312 307 306 306 303 302 303 304 305 308 309 309 309 309 309 309 310 310 308 306 305 304 300 296 295 293 291 291 290 288 288 288 287
315 317 315 311 310 310 311 312 312 311 310 311 311 312 312 311 311 311 312 313 312 312 312 313 313 312 313 313 312 312 313 312 312 313 313 317 316 308 301 300 302 305 308 309 309 313 318 315 310 311 311 310 311 310 311 311 310 309 308 305 302 302 303 305 307 307 308 309 310 309 309 310 310 309 308 308 308 304 298 296 294 291 290 290 289 288 288 287
316 318 316 314 313 312 311 312 313 312 311 310 309 311 312 311 311 311 312 312 313 313 313 313 313 313 313 312 312 312 312 312 313 312 312 314 313 309 305 302 300 303 306 305 305 310 314 313 311 312 311 310 310 310 311 312 311 309 310 309 305 301 301 304 305 306 307 309 310 309 309 310 310 309 309 309 309 308 302 297 294 292 290 289 288 288 288 287
316 318 317 315 315 315 312 311 312 312 311 310 309 310 310 310 310 310 311 313 313 312 312 313 313 313 313 312 312 313 312 312 313 312 312 312 312 311 311 309 303 301 304 304 304 307 310 311 311 311 311 311 310 309 310 310 309 309 309 309 307 304 302 302 303 304 305 306 308 308 308 309 308 308 308 307 308 309 304 297 293 291 290 289 288 288 288 287
316 317 316 314 315 317 314 312 312 313 312 311 311 310 309 309 309 309 311 313 313 312 313 312 312 312 313 313 312 312 311 311 312 313 313 313 313 311 312 314 310 301 300 303 305 305 307 311 313 311 311 312 310 309 310 309 309 309 308 308 308 307 304 303 303 303 304 304 305 305 306 307 306 306 306 306 306 307 303 299 294 292 290 290 288 287 288 288
315 314 315 315 315 315 315 313 312 313 313 312 312 311 310 310 309 308 309 311 312 312 312 312 312 311 312 313 313 312 312 311 311 311 311 312 313 313 312 313 312 306 301 302 304 305 306 311 313 312 311 312 311 311 311 309 308 308 308 308 308 307 308 306 305 305 304 305 305 305 306 306 305 305 306 306 306 305 304 300 295 292 290 289 288 288 288 288
314 313 314 316 316 315 315 314 312 313 313 312 312 311 311 311 310 309 309 310 310 310 311 312 312 312 312 313 312 312 312 311 311 314 314 312 312 314 314 312 311 309 304 301 303 306 306 309 311 311 311 311 310 310 309 309 310 311 311 310 309 308 308 307 307 307 306 306 306 307 307 307 306 307 307 307 306 304 302 300 296 292 290 289 288 288 288 288
Wind_Speed
12 12 13 14 15 16 17 18 19 20 21 23 24 24 25 25 25 25 23 21 19 13 7 1 4 5 4 6 7 5 6 7 8 11 10 5 7 7 8 9 9 11 11 10 10 5 3 6 7 12 7 3 3 1 1 2 2 5 3 4 2 3 3 4 7 7 4 4 5 3 4 8 4 3 4 4 9 5 6 5 3 5 6 6 10 13 13 11
11 11 12 12 13 15 16 16 17 19 20 21 23 23 24 25 25 25 23 21 19 15 9 2 3 7 6 6 4 3 5 5 6 9 9 6 7 8 8 9 8 9 10 9 10 8 5 5 7 9 6 2 3 2 2 1 3 4 3 4 2 5 3 4 7 6 4 5 5 3 5 6 7 7 4 3 2 3 7 4 3 5 5 5 9 11 11 11
11 11 12 12 12 13 14 15 16 17 19 20 22 23 24 25 25 24 23 20 18 16 11 4 2 8 7 6 3 5 7 5 4 4 6 6 7 7 8 8 7 8 9 7 7 7 4 4 4 4 4 2 2 2 3 3 1 2 4 3 4 6 4 4 5 7 6 5 6 4 5 4 5 6 3 5 6 4 5 5 3 3 5 5 6 8 10 12
11 11 12 12 12 12 13 15 15 16 18 19 21 22 23 24 25 24 23 21 17 16 13 6 1 7 9 7 3 4 7 4 1 1 4 5 6 7 8 8 8 8 8 7 7 6 4 3 2 4 4 2 4 3 3 3 1 1 3 3 5 4 3 5 6 7 5 5 7 6 5 4 4 3 4 9 7 4 7 9 9 11 13 9 7 8 10 12
11 11 12 12 12 13 13 13 14 15 16 18 20 21 22 23 24 24 23 20 16 15 13 7 4 4 10 8 4 5 7 3 1 1 2 3 5 6 7 9 9 8 8 9 8 6 6 5 5 6 4 2 5 4 2 4 2 1 1 2 5 4 3 5 5 4 3 4 4 6 6 5 3 2 6 12 9 5 7 9 10 12 14 12 10 10 10 11
10 11 12 12 13 13 13 13 14 15 16 17 18 20 22 23 24 25 24 20 15 13 13 8 5 2 7 9 5 4 4 1 3 1 1 1 4 6 6 9 10 9 8 9 11 9 7 7 6 5 4 3 3 3 2 5 2 1 3 1 3 4 4 3 3 4 5 6 5 6 4 5 5 1 5 10 8 5 3 7 9 10 13 14 13 11 9 9
10 11 12 12 13 13 14 14 14 15 16 17 18 19 21 23 24 26 24 19 15 12 12 7 4 1 4 7 5 3 3 2 4 1 2 1 3 6 6 7 10 9 6 9 13 8 6 8 6 3 3 3 2 2 2 5 4 3 2 2 1 3 3 4 4 4 6 7 6 6 5 6 7 4 3 6 4 3 2 10 12 12 15 14 12 9 9 10
9 10 11 12 13 14 14 15 15 15 16 17 18 19 20 22 23 27 25 18 14 12 11 7 2 2 4 5 2 3 2 3 3 2 3 2 2 5 5 6 8 7 6 10 11 4 4 6 3 2 2 1 1 2 3 5 5 3 2 2 1 2 3 3 1 2 5 5 2 6 4 4 6 5 5 6 3 3 6 11 12 12 12 11 9 8 9 9
9 9 10 11 12 13 14 15 15 16 17 17 19 19 20 22 23 27 25 18 14 12 10 6 1 5 5 4 5 2 4 3 2 3 4 3 3 5 4 5 7 7 7 9 9 6 3 2 1 1 1 1 1 1 3 4 3 2 2 2 1 2 3 2 1 3 5 3 2 5 0 3 3 3 3 6 6 6 8 10 10 10 9 8 8 8 9 8
9 9 9 10 11 12 13 14 15 16 17 18 19 19 20 22 22 26 25 17 13 11 9 4 2 6 5 2 5 0 4 1 2 3 4 4 4 4 3 5 6 7 7 6 8 8 4 4 3 3 4 1 0 2 1 2 1 3 2 3 4 3 3 3 5 6 5 2 3 5 1 3 1 0 3 5 7 7 10 10 8 9 9 9 7 8 10 10
11 11 10 11 11 12 13 14 15 16 17 18 19 20 20 21 22 25 25 17 11 11 8 2 2 5 5 3 5 4 3 0 2 2 2 3 3 3 3 4 5 6 5 6 7 7 5 6 5 3 2 0 1 2 1 1 1 1 1 4 5 5 5 2 4 5 4 1 3 5 1 2 1 2 6 8 9 9 11 10 8 8 8 8 8 7 8 10
12 12 12 12 12 13 13 15 15 16 17 18 19 20 20 21 22 25 24 14 10 11 7 1 3 6 4 3 3 5 3 2 2 1 1 2 2 2 3 4 5 5 4 4 5 6 6 5 6 4 0 1 0 2 1 1 1 1 4 4 7 8 6 4 2 3 4 3 4 6 1 3 5 6 5 10 11 8 10 10 9 8 7 7 8 6 6 10
13 13 13 13 13 14 14 15 16 17 18 18 20 21 21 22 22 25 22 12 8 10 6 2 5 8 5 0 4 5 4 4 3 1 1 2 2 1 3 4 3 5 4 5 5 6 5 4 5 3 1 4 0 2 1 3 2 1 4 2 5 8 6 4 2 1 3 3 4 4 4 6 9 10 4 10 13 10 10 11 10 8 7 7 7 6 6 9
12 13 13 13 14 15 15 16 17 17 18 19 20 21 22 22 22 24 20 10 8 10 6 2 6 7 3 2 4 4 5 5 4 2 1 3 2 1 2 4 2 4 5 6 6 6 5 3 4 3 1 3 1 2 3 6 3 1 2 2 3 3 4 6 2 3 4 3 2 4 4 9 9 9 6 10 13 14 13 12 10 9 8 7 7 7 7 8
12 12 13 13 14 15 15 16 17 18 19 20 20 22 22 22 24 24 17 10 9 10 6 3 7 5 1 3 3 5 6 5 5 3 2 3 2 1 2 3 1 4 5 6 6 5 3 3 4 3 1 1 3 3 3 4 4 3 1 3 3 0 5 9 4 5 5 1 2 4 4 9 10 8 8 11 11 14 14 12 11 10 10 9 8 8 7 7
14 13 13 13 14 14 15 16 17 19 20 20 21 22 22 23 24 21 14 9 9 10 4 3 6 5 1 3 2 3 6 6 6 5 4 3 2 2 3 2 3 4 4 4 5 3 3 4 4 2 0 2 5 4 3 4 4 3 1 3 3 2 4 7 4 3 3 1 2 4 5 7 8 4 4 10 12 13 12 11 12 11 11 10 8 8 7 7
17 15 14 13 14 14 15 15 17 18 20 21 21 23 23 23 22 17 10 6 6 6 1 3 4 3 1 1 1 3 5 7 7 6 5 4 2 3 1 2 3 4 4 4 2 1 3 4 1 1 2 3 2 4 3 4 4 4 2 1 4 3 2 5 5 4 1 2 4 5 6 12 11 2 3 9 12 13 12 12 13 12 10 9 8 8 8 8
19 18 16 14 14 14 14 15 16 17 19 20 20 23 24 20 17 11 4 3 2 1 2 1 2 2 3 2 3 2 3 5 6 5 5 5 3 3 1 2 3 3 4 3 1 2 2 3 2 1 3 4 3 5 1 4 3 3 3 2 4 3 4 5 6 3 1 2 5 4 7 15 16 6 5 9 11 13 15 13 12 11 10 9 9 9 8 9
20 19 17 16 15 15 15 15 16 17 19 20 20 21 18 12 9 5 2 1 0 0 2 3 2 3 3 3 2 2 2 3 4 5 5 4 2 1 2 3 3 3 2 1 1 3 1 3 4 1 3 4 2 4 6 7 6 5 4 4 4 5 6 7 7 5 2 3 7 7 9 14 17 12 7 9 11 13 14 11 9 8 9 9 9 9 9 9
21 20 19 17 15 15 15 15 15 16 18 19 20 18 10 5 5 4 3 3 4 3 2 4 4 2 2 1 1 3 2 2 3 4 5 4 1 1 1 3 5 3 2 1 2 2 4 3 2 5 6 7 7 7 6 5 5 3 2 4 5 5 7 7 5 4 1 2 8 9 10 14 16 16 11 9 10 12 12 12 10 9 10 10 11 11 11 10
22 20 19 17 15 14 14 14 14 14 15 17 17 11 2 1 2 3 4 7 8 4 4 6 4 4 4 1 2 4 2 1 3 3 5 4 2 3 2 3 3 0 2 1 1 3 5 2 5 8 8 8 6 6 5 4 3 2 3 4 5 5 8 9 4 4 1 3 6 6 7 13 15 17 13 7 10 13 15 15 15 14 12 11 12 13 12 8
21 20 20 18 15 14 13 13 13 13 13 12 10 3 3 2 2 1 1 5 9 3 3 4 2 5 5 2 3 3 3 1 4 4 7 4 3 3 2 3 4 4 2 1 1 5 4 3 10 8 5 4 3 5 6 3 3 2 2 2 5 4 4 8 5 5 2 3 5 7 7 12 13 17 17 10 11 13 15 18 18 16 15 14 13 13 12 10
20 19 19 18 15 13 12 12 12 12 10 8 5 1 3 2 3 2 1 2 7 3 1 2 3 4 3 2 5 6 4 4 4 5 7 6 2 3 3 4 4 2 1 2 4 1 2 6 8 3 5 7 3 3 5 1 1 3 3 2 5 4 2 5 4 5 4 2 5 9 10 11 10 15 19 11 10 11 12 16 15 13 15 15 14 13 13 14
19 19 19 18 15 12 10 11 11 9 7 4 3 0 3 3 4 2 0 1 5 5 2 4 3 4 3 2 6 9 3 3 4 3 7 8 3 2 4 5 4 1 3 5 7 5 6 6 3 5 5 6 3 1 3 2 4 4 5 6 6 6 5 6 4 6 6 4 4 7 10 9 7 13 16 6 3 8 9 10 12 12 12 10 10 11 12 13
18 18 18 17 13 10 9 10 8 4 4 3 1 1 2 4 4 2 1 2 4 6 3 3 2 3 5 4 6 7 2 2 4 3 4 6 5 3 1 2 3 3 5 4 5 4 7 4 4 5 2 4 4 3 4 6 3 5 5 9 9 8 8 6 5 6 5 4 4 6 7 7 2 6 12 5 4 8 6 8 13 14 10 8 10 12 11 10
19 18 15 14 12 9 8 6 3 2 3 3 2 1 2 4 4 2 3 4 3 5 1 2 1 4 6 4 3 4 2 2 3 2 3 3 4 3 2 1 1 3 5 4 2 3 3 1 3 5 5 4 4 5 6 7 4 4 4 6 7 5 4 4 4 4 2 4 2 4 2 9 3 3 10 8 7 10 7 9 13 12 10 10 12 11 11 10
20 16 11 13 11 7 6 3 2 2 2 2 3 3 3 4 4 2 2 4 4 4 3 1 1 4 5 2 2 4 2 3 0 2 2 2 0 2 2 3 1 2 3 3 1 3 3 2 4 4 5 4 4 5 6 8 7 4 4 4 5 2 1 1 2 0 3 3 3 3 4 8 8 5 8 7 8 12 11 12 13 10 11 13 13 11 11 12
19 14 10 14 10 5 6 6 4 3 2 1 2 3 4 5 4 2 3 1 4 1 2 1 1 3 1 0 2 3 2 2 3 1 2 4 1 3 1 6 6 5 3 5 4 5 3 4 4 5 4 3 6 6 8 10 5 5 4 5 4 3 1 2 2 2 2 3 5 5 6 5 10 5 3 2 5 11 14 16 14 12 13 14 12 10 11 11
16 11 10 12 9 6 7 7 5 3 2 2 2 3 5 5 2 4 3 3 4 1 1 0 2 1 2 2 1 1 2 2 2 3 2 3 1 4 2 5 6 4 1 3 5 6 1 4 7 8 5 6 6 4 7 10 5 3 5 5 4 4 3 3 2 0 2 3 9 6 8 4 8 4 2 2 3 9 12 13 12 11 13 12 10 10 11 10
13 8 9 10 7 5 6 6 7 6 3 2 3 5 5 3 4 3 3 5 3 0 1 1 2 1 4 4 2 2 0 2 0 2 3 1 3 6 2 2 5 4 1 4 3 5 3 2 2 4 4 6 4 2 2 4 3 3 6 4 5 4 4 4 2 3 3 5 10 7 12 8 6 3 6 4 5 8 8 9 8 8 10 10 10 11 11 10
12 9 10 10 7 5 3 4 5 5 4 4 5 6 4 2 4 4 7 6 3 1 1 1 1 2 5 5 2 1 2 2 1 2 1 1 2 4 2 1 3 3 3 5 4 5 5 1 2 2 1 4 6 4 2 2 3 4 4 4 4 4 4 4 4 4 1 6 6 3 9 9 8 6 4 5 7 6 7 7 8 9 10 10 10 11 11 10
10 11 11 10 8 7 5 3 0 1 3 7 7 5 4 0 1 4 5 4 2 3 3 3 2 3 4 3 1 3 3 2 2 4 4 3 2 3 3 4 4 0 4 3 3 5 3 4 3 3 1 4 5 3 2 5 4 4 4 4 3 4 4 3 3 1 3 7 3 2 4 5 12 11 8 10 12 9 8 8 9 9 8 9 11 10 9 8
10 13 12 10 11 10 9 7 3 1 4 8 5 4 5 3 6 6 5 3 2 2 2 2 1 3 5 3 3 3 3 3 3 3 3 3 3 5 5 4 5 3 4 3 1 3 4 4 1 0 3 3 8 5 2 2 1 4 4 4 3 1 1 4 4 2 4 6 2 4 4 4 10 8 11 16 15 10 7 7 9 7 7 10 11 10 8 8
13 14 14 11 12 12 10 8 5 2 5 7 4 4 3 6 6 5 7 7 3 1 2 2 3 3 4 3 4 4 3 4 4 5 3 3 2 5 6 5 4 3 2 2 1 2 3 6 2 5 2 3 8 6 4 5 3 4 4 4 5 5 3 4 4 4 5 7 4 3 3 4 5 3 7 10 8 5 3 5 6 6 6 7 8 8 8 9
13 15 17 15 15 15 12 9 6 4 6 5 5 3 8 8 3 3 6 6 2 1 1 2 4 4 2 3 4 3 4 4 2 5 4 4 4 5 4 6 6 5 4 3 2 2 3 7 5 2 2 3 5 2 4 6 2 1 2 4 2 4 5 3 3 4 1 6 6 3 4 6 4 3 5 2 4 4 4 5 2 4 5 6 7 8 9 9
12 15 16 16 17 17 14 11 8 7 7 6 4 8 10 7 4 4 4 4 4 4 3 2 3 4 4 3 3 3 2 2 1 3 3 3 3 5 4 5 8 10 8 5 3 2 1 6 4 2 2 2 2 2 1 2 3 2 2 3 4 4 5 2 4 2 4 2 6 3 6 9 6 6 4 3 3 5 4 4 2 4 5 7 8 9 10 10
12 13 12 14 16 18 17 14 10 9 6 5 7 11 7 5 6 6 4 4 3 5 6 2 3 5 5 3 3 5 2 1 2 3 3 3 3 5 6 5 6 13 13 6 3 4 2 5 4 2 2 2 1 1 2 2 3 5 3 5 3 2 3 3 1 3 2 3 6 4 9 13 9 6 2 3 4 9 6 4 3 4 6 8 9 9 10 10
12 9 8 14 20 20 18 16 13 10 4 4 11 11 4 5 6 5 5 4 3 4 5 5 6 5 6 5 4 4 5 4 3 3 3 3 4 5 7 5 5 10 11 5 2 3 3 3 4 1 2 3 3 1 1 3 3 5 4 3 3 2 1 2 2 2 1 3 7 5 8 13 10 5 3 3 8 10 8 5 5 7 10 10 9 10 10 9
13 6 5 12 20 22 21 18 13 7 3 6 12 10 4 5 5 4 6 5 3 3 4 6 5 3 4 5 4 4 6 6 6 4 3 4 5 4 6 5 4 3 3 6 5 2 3 2 4 1 1 3 3 1 4 2 1 2 0 1 1 3 3 3 3 3 3 3 7 5 8 13 9 5 5 8 10 10 9 8 9 11 12 11 10 11 11 11
10 4 3 8 18 26 26 18 9 5 6 9 11 7 3 3 5 7 8 6 3 3 4 4 4 4 4 5 4 4 5 5 6 5 4 4 4 5 6 5 5 3 2 3 3 2 3 2 4 2 3 1 2 4 7 8 5 3 2 2 2 1 1 1 2 2 4 4 5 3 7 15 7 5 7 8 9 11 11 10 11 12 12 11 11 11 11 12
7 4 3 9 21 28 25 13 6 6 6 9 9 6 3 3 4 6 7 8 6 2 3 5 6 6 5 5 4 4 5 5 6 5 5 5 5 5 7 8 8 7 3 4 2 4 3 3 3 2 1 4 6 5 5 7 7 6 6 7 7 6 3 1 4 4 3 4 5 2 6 17 8 4 5 6 7 10 11 11 10 11 13 12 11 12 13 12
5 5 3 13 28 31 20 7 6 5 5 7 7 5 4 4 4 5 5 6 6 3 1 3 7 7 5 5 5 6 6 4 6 7 5 7 10 8 7 8 10 10 7 4 3 3 3 3 3 4 4 6 6 4 1 3 2 3 5 5 6 6 6 6 7 5 3 4 4 4 5 17 7 4 3 5 6 7 8 10 10 10 12 12 12 12 11 11
5 4 3 15 33 29 13 5 6 5 6 6 5 5 5 4 4 5 6 7 6 5 5 6 6 8 7 6 5 6 7 6 7 8 5 6 11 10 7 10 11 9 6 3 2 1 2 2 3 5 4 2 4 4 2 2 2 3 6 5 6 8 9 8 6 3 2 4 3 3 9 16 4 3 2 1 1 4 5 9 11 10 9 10 12 12 11 10
4 3 3 17 35 27 10 7 8 8 9 7 7 9 7 5 7 8 9 11 9 7 8 9 7 7 8 7 8 8 7 6 7 8 9 9 7 5 9 13 13 10 7 5 5 5 3 3 3 4 5 4 4 3 3 2 1 5 6 5 8 11 8 2 1 1 4 9 8 5 13 17 5 2 1 1 1 3 5 8 9 8 8 9 11 10 10 9
3 3 1 13 27 20 8 6 6 7 11 11 11 12 9 6 9 12 13 14 11 7 7 7 6 7 7 6 7 9 9 10 10 6 8 9 4 2 6 11 14 11 6 4 6 8 5 4 5 6 8 8 8 6 4 3 3 3 4 6 11 14 12 6 2 4 9 12 10 10 16 19 12 3 2 2 5 6 6 7 7 7 8 9 9 10 10 10
4 4 2 6 11 10 7 5 4 4 8 10 9 10 12 13 10 10 14 14 11 7 5 5 5 7 7 7 8 10 11 13 11 5 6 7 4 3 2 6 10 8 3 3 7 7 4 4 8 12 13 13 14 12 6 6 5 5 7 11 14 15 15 10 5 9 11 5 7 18 22 21 24 17 6 8 12 9 8 8 8 8 8 8 10 11 11 10
5 6 6 6 4 6 8 8 7 6 5 7 6 7 14 18 12 6 10 11 10 9 8 7 7 8 10 12 12 11 12 14 13 13 12 7 2 2 1 2 5 4 2 3 5 5 3 5 13 16 18 18 18 17 8 7 8 11 10 12 14 14 14 13 13 17 12 3 9 25 23 18 29 28 15 16 18 11 9 11 10 10 10 10 11 11 11 10
7 5 6 10 7 8 11 12 12 10 7 8 7 7 11 16 14 10 9 7 8 11 10 8 12 19 20 16 12 9 11 12 13 17 16 9 4 2 1 0 2 3 3 2 3 3 4 9 15 15 17 19 19 19 12 8 10 11 13 15 14 13 15 19 23 23 15 10 19 27 23 22 29 26 18 19 18 11 11 12 10 10 10 9 10 11 12 13
8 3 3 9 9 9 13 16 15 14 16 14 9 10 14 19 20 14 6 4 6 12 14 14 19 24 23 16 11 10 12 14 16 17 14 10 9 6 2 4 3 1 4 4 3 2 4 9 14 12 13 17 18 17 13 12 12 12 19 23 14 13 19 22 22 22 20 21 26 27 26 29 29 23 20 21 15 9 9 8 8 9 9 10 12 14 15 16
9 4 4 5 7 9 9 11 13 13 16 15 12 14 18 22 22 12 6 9 10 10 15 22 23 19 17 17 15 17 21 21 19 15 10 10 10 7 6 7 3 2 4 5 2 2 5 8 8 6 7 15 17 13 10 10 11 12 23 28 17 15 20 20 18 19 19 22 27 27 25 27 26 21 21 21 13 9 9 8 9 10 11 13 15 15 16 17
14 7 7 3 5 9 6 6 10 10 11 13 14 18 18 20 22 14 6 11 16 13 13 22 26 17 11 14 20 25 28 25 20 16 12 12 12 9 8 8 8 7 6 6 3 3 5 4 1 3 6 13 10 4 3 2 2 10 25 30 23 18 18 18 17 17 18 20 24 22 19 20 22 21 18 15 10 10 13 12 11 10 12 15 16 16 18 18
16 6 8 6 6 8 7 5 9 9 10 13 18 20 18 18 18 13 7 9 18 19 13 16 21 15 8 15 25 29 28 23 18 13 8 7 7 7 5 6 10 10 8 7 4 3 6 5 3 4 8 11 3 5 4 5 4 12 22 23 22 20 19 19 18 19 22 20 16 16 18 20 21 18 16 14 11 11 13 12 11 11 13 15 17 18 19 17
Wind_Direction
23 22 18 17 16 17 17 16 15 15 14 13 14 15 16 17 17 18 18 17 18 24 34 67 188 184 176 148 120 75 48 51 52 56 60 26 0 7 4 1 6 8 5 359 7 26 4 6 352 354 24 100 13 330 27 43 76 55 83 87 100 162 159 169 180 195 171 185 213 207 148 132 167 217 165 57 45 72 68 42 20 34 39 75 118 128 132 134
19 18 16 14 12 12 13 13 13 12 12 11 11 12 13 13 13 14 15 15 13 15 24 25 192 189 183 168 155 18 5 4 26 45 39 17 13 12 7 4 4 7 6 6 12 20 13 345 331 358 35 61 348 335 21 37 78 82 112 88 190 197 180 186 179 188 176 174 191 173 155 155 172 174 153 104 113 129 90 43 5 53 56 88 120 128 129 122
14 14 13 12 9 7 7 9 9 8 9 8 8 9 10 10 9 9 10 11 10 9 13 22 201 200 194 194 201 354 341 341 10 29 11 11 23 16 9 0 359 11 11 16 19 20 14 317 316 19 45 53 355 343 22 18 31 132 113 80 234 209 195 219 185 193 210 181 166 165 166 168 175 166 141 137 167 198 155 160 156 160 175 159 155 139 128 118
12 11 10 11 8 5 3 3 4 3 4 4 4 4 6 8 6 5 5 5 6 6 6 15 335 214 206 210 203 339 340 7 345 297 358 11 28 24 15 2 6 14 11 28 33 28 25 0 37 49 50 34 341 10 34 350 353 113 104 142 211 179 168 214 195 204 207 174 165 151 141 155 180 173 144 141 149 241 224 198 185 178 177 171 177 159 137 120
10 7 8 7 6 4 1 358 356 357 357 358 360 359 1 4 4 2 1 1 2 5 4 5 357 233 214 214 208 331 357 45 259 289 14 16 33 25 17 7 8 6 5 26 28 29 31 31 57 42 43 31 349 21 11 321 65 55 353 167 186 143 160 224 205 200 159 130 142 134 145 160 152 154 162 161 171 233 226 205 194 171 165 164 164 159 140 120
7 5 5 3 3 2 360 357 353 352 351 351 354 355 356 359 1 360 359 359 359 4 3 359 0 294 216 212 220 340 27 141 272 352 332 1 36 20 14 2 4 3 356 14 21 31 31 23 49 44 31 42 15 33 320 312 34 51 323 8 213 185 167 206 201 201 148 129 163 168 168 132 115 165 192 186 203 270 253 163 159 153 154 154 150 151 141 129
4 3 1 359 359 357 357 355 351 349 348 347 348 352 353 354 358 358 357 0 358 0 3 1 6 358 201 207 226 10 57 242 287 332 265 312 29 13 12 355 0 358 351 17 21 34 46 29 44 78 48 41 30 11 320 319 26 92 281 323 255 235 184 189 183 189 165 165 191 163 136 139 158 174 173 214 241 339 66 123 130 140 146 148 147 150 149 147
360 359 357 356 353 353 352 351 349 347 346 345 345 347 350 350 353 355 355 358 356 355 359 359 9 115 141 171 181 15 343 263 282 254 266 287 345 2 2 353 359 358 29 42 31 53 72 42 49 113 46 15 147 348 344 346 17 92 248 298 59 278 265 258 193 173 191 193 162 121 135 201 195 166 160 214 217 114 123 119 128 139 143 152 152 153 156 155
352 351 352 351 348 348 347 346 345 343 343 342 341 343 346 346 348 352 352 354 352 346 351 357 203 158 137 121 97 21 286 251 276 266 265 281 312 339 350 3 7 14 52 54 44 67 82 73 200 174 135 210 161 324 349 10 338 198 221 295 289 284 288 273 207 218 220 208 125 137 186 286 203 164 191 205 179 152 133 127 140 144 149 160 156 162 165 167
342 343 345 344 344 343 341 341 340 339 339 338 338 339 341 342 344 347 348 349 345 339 346 355 204 182 179 113 85 214 268 245 281 276 269 281 308 325 349 13 14 26 54 58 55 67 95 159 178 145 132 133 52 329 359 89 207 208 215 260 260 290 293 205 199 227 225 229 194 179 296 305 222 211 241 207 174 160 136 141 159 151 161 166 163 173 170 174
334 336 337 338 340 338 338 337 336 336 335 334 335 335 336 338 339 342 344 344 339 337 339 337 191 189 191 118 114 209 253 247 266 280 274 279 318 334 9 20 20 34 51 66 76 81 103 154 149 117 104 79 303 342 295 197 189 233 315 295 294 325 314 240 212 227 193 199 171 140 64 305 313 286 226 186 168 165 149 157 175 167 172 170 169 176 173 180
329 330 332 333 335 335 336 335 333 332 331 331 330 330 333 334 334 337 339 336 334 339 333 279 189 182 159 88 161 217 236 213 242 266 276 295 335 349 39 28 26 41 44 70 100 100 101 140 122 96 280 145 295 341 226 199 22 12 38 335 313 353 346 310 275 221 173 197 166 129 325 270 221 244 216 161 159 161 157 168 182 182 182 177 176 176 183 188
323 325 326 328 330 332 333 332 331 330 328 328 327 327 329 330 331 332 332 324 324 343 336 263 201 179 140 78 225 210 208 205 212 201 348 334 337 343 37 20 32 56 56 82 111 107 98 130 117 109 149 117 247 286 96 40 21 315 47 40 324 357 340 309 348 143 155 189 173 143 276 255 226 236 197 152 157 153 169 185 186 189 187 183 183 181 195 195
316 319 319 322 325 327 329 329 328 326 325 326 325 325 326 328 327 326 326 305 300 334 332 244 185 166 139 251 230 195 204 208 209 222 345 336 335 240 5 11 40 76 74 86 99 98 93 118 109 84 100 113 256 292 19 9 16 341 20 48 8 356 289 295 339 123 147 204 153 120 255 259 253 246 187 164 166 163 181 194 188 194 191 187 189 187 197 200
307 310 313 316 319 322 324 325 325 323 323 323 322 323 323 325 323 321 320 292 284 319 324 214 181 152 96 284 242 204 218 222 224 239 293 332 348 258 327 2 91 94 87 83 85 95 92 99 94 82 264 5 44 40 3 348 5 35 348 313 345 303 276 301 292 171 172 252 96 126 241 267 271 257 186 167 174 177 188 195 192 197 193 189 194 191 194 202
301 303 305 309 312 316 319 321 323 321 321 322 322 322 322 323 319 316 312 285 280 306 314 189 185 153 111 280 258 223 224 224 226 232 253 296 343 322 345 57 120 100 103 87 83 101 79 71 69 68 256 21 61 73 32 6 343 4 69 245 271 242 295 316 308 226 211 152 156 190 243 272 276 279 176 169 180 190 197 198 197 200 197 192 193 193 191 196
296 298 300 304 305 310 315 318 321 321 321 322 322 322 323 322 315 311 307 280 279 298 216 164 170 156 252 253 223 267 226 213 221 229 249 271 321 334 351 107 104 99 100 84 92 98 41 54 31 328 45 38 67 83 32 348 307 322 12 243 250 229 251 297 305 317 16 165 218 225 243 260 266 292 152 186 189 195 206 206 204 202 198 196 192 194 196 192
293 295 297 300 302 306 312 316 320 322 322 323 325 324 321 318 310 303 289 251 288 4 142 147 101 124 277 240 196 239 196 195 214 226 243 248 288 340 29 119 106 97 59 40 47 36 7 30 52 12 19 1 28 84 114 254 223 245 270 273 288 264 219 244 272 296 72 213 232 225 249 262 269 268 190 200 198 203 213 211 208 204 197 199 196 195 200 195
292 292 294 298 301 303 310 316 321 324 325 326 329 327 322 318 311 290 232 197 205 108 212 229 158 152 242 243 203 168 147 177 207 225 228 222 258 358 92 83 84 95 51 1 325 21 48 34 38 1 317 295 257 154 193 212 185 201 223 213 255 273 258 240 243 256 225 249 250 231 244 262 270 270 229 202 202 211 222 220 214 207 201 202 201 201 202 199
292 291 291 295 299 302 310 317 321 325 329 333 336 338 339 346 347 328 323 302 230 197 220 230 214 226 255 256 161 151 171 219 223 223 203 196 202 107 107 36 36 50 74 192 276 1 79 58 304 248 246 250 240 203 184 174 156 160 190 222 245 248 273 271 252 273 189 214 261 234 235 258 266 269 253 206 202 217 224 227 222 209 206 205 204 205 201 202
293 291 288 292 299 303 308 315 321 324 329 336 340 346 11 110 3 320 321 299 272 236 232 241 230 262 263 213 171 160 148 273 267 228 190 187 128 142 240 20 58 302 280 210 275 358 61 66 261 242 226 231 230 181 141 117 135 155 208 248 275 233 257 279 282 308 214 177 265 246 235 257 260 268 263 194 192 220 217 219 223 212 210 210 204 205 202 199
293 291 289 292 299 302 305 314 319 320 325 333 340 8 143 152 164 225 337 301 290 268 214 250 254 267 261 224 207 159 114 249 285 255 189 163 104 181 250 56 142 213 308 53 49 359 19 264 257 252 198 147 87 119 125 126 156 175 191 229 281 251 271 292 306 341 357 166 267 274 259 259 258 267 265 215 199 224 216 215 220 210 209 211 205 202 197 193
294 294 293 292 296 300 304 312 314 315 322 335 347 85 150 166 165 179 117 285 291 298 173 217 205 229 253 253 205 163 157 201 237 249 184 151 118 191 164 114 159 196 23 157 165 117 300 250 246 223 135 132 92 73 109 86 215 192 189 204 265 273 308 285 302 345 329 230 266 285 277 262 254 262 265 242 213 228 224 222 225 215 214 214 206 201 195 193
299 300 296 293 295 298 304 310 307 305 308 322 349 148 174 185 170 169 84 293 289 292 241 207 191 192 197 207 179 163 173 199 194 227 176 154 146 163 164 153 139 151 240 192 164 184 244 244 170 107 111 151 171 357 140 204 285 248 207 204 242 266 247 241 289 338 325 306 310 318 298 268 231 243 260 276 249 245 233 228 233 227 224 216 204 206 202 197
302 301 297 294 294 295 306 310 301 287 291 287 246 159 160 183 179 147 45 15 297 299 280 220 212 201 186 141 159 171 155 219 216 215 175 161 158 148 176 160 139 202 221 167 154 218 261 256 139 124 101 134 171 242 210 187 250 295 232 209 226 250 256 270 327 351 346 326 347 12 323 277 202 230 257 292 298 257 229 223 234 228 220 208 205 207 202 200
301 303 300 297 296 300 307 307 293 290 303 274 212 188 176 187 185 156 67 42 293 279 255 206 197 179 176 141 162 164 121 268 255 137 131 153 163 141 145 172 80 215 190 145 161 233 260 336 86 135 143 130 172 247 237 172 150 294 245 195 203 225 266 300 353 7 312 268 294 65 310 274 276 207 247 257 259 258 245 232 237 231 216 210 212 206 193 194
299 304 299 295 299 316 314 295 288 287 289 257 195 200 204 181 176 189 45 20 284 239 156 257 312 158 177 186 164 144 174 257 52 83 95 112 145 78 150 208 135 216 186 125 301 252 176 84 54 104 123 137 184 246 230 161 138 242 226 138 128 130 255 214 84 5 244 271 281 160 174 274 279 240 243 244 244 263 263 248 243 230 219 218 215 203 192 193
299 298 289 290 292 306 301 286 283 266 235 213 181 191 191 174 167 95 65 304 272 200 133 266 99 133 163 354 100 123 234 263 119 229 9 76 69 63 168 223 180 193 185 133 231 260 162 169 190 157 129 180 209 224 194 159 161 239 195 121 103 105 159 148 115 260 283 349 291 205 148 267 276 251 278 299 240 257 261 254 247 228 220 221 212 198 195 194
297 294 294 298 289 282 286 275 265 260 238 197 179 177 170 167 141 68 88 236 267 34 73 54 122 126 41 67 19 52 335 344 128 253 352 69 50 67 164 214 155 166 192 133 224 258 226 209 194 156 160 213 218 219 184 166 192 222 132 99 60 66 71 71 76 321 36 328 271 229 155 223 274 230 160 30 239 245 252 254 250 231 222 218 202 194 194 189
286 277 291 300 287 276 281 269 257 252 244 209 182 156 147 130 75 82 206 236 260 267 92 110 179 176 102 121 279 325 206 278 341 356 15 67 11 35 130 182 96 113 345 355 280 267 317 329 166 153 188 198 158 118 178 166 165 119 90 55 17 27 46 47 50 68 52 278 268 230 173 188 278 244 167 185 219 218 230 253 257 233 221 208 193 194 192 184
274 258 274 282 267 257 270 277 260 239 228 198 166 137 119 61 74 151 222 243 262 251 151 190 215 124 131 153 203 199 171 255 232 136 124 141 16 35 95 161 73 66 358 334 299 305 336 352 225 260 189 131 100 83 32 17 73 92 75 49 6 337 13 20 357 47 67 256 269 232 173 186 244 244 190 224 246 221 214 244 250 230 218 202 193 195 189 182
267 247 262 269 250 245 252 261 267 183 193 166 149 109 91 230 218 188 229 285 276 217 174 189 214 157 162 163 205 191 176 219 198 167 162 156 176 188 192 188 164 60 314 260 275 330 310 228 253 315 243 140 111 87 5 354 36 87 90 74 40 335 354 345 310 49 221 247 254 122 139 216 245 246 237 244 255 248 223 227 239 233 217 199 194 194 185 176
262 242 247 255 244 246 253 250 256 256 175 156 137 64 86 201 232 192 198 242 230 217 147 123 110 139 143 140 241 208 169 215 195 170 170 144 181 233 247 218 174 208 257 215 287 329 296 292 324 230 279 176 150 157 213 263 141 144 146 128 126 112 344 278 270 268 265 270 247 130 122 268 271 260 234 232 243 251 237 233 244 239 210 199 195 185 177 177
269 244 235 240 237 242 246 240 244 219 167 150 112 73 130 223 237 185 204 224 230 345 40 99 88 102 139 179 236 200 176 229 179 151 172 135 163 237 241 229 190 159 153 144 191 200 244 294 226 176 247 191 178 187 165 144 144 175 164 139 148 154 181 233 236 242 281 302 274 157 140 249 270 271 223 231 260 283 283 268 261 247 209 188 178 170 173 181
260 243 236 233 224 229 236 234 231 198 166 139 108 154 204 220 209 182 215 219 225 326 26 49 86 107 224 264 273 225 203 237 153 133 177 174 187 210 199 205 195 152 128 163 236 167 203 266 256 224 265 173 188 221 121 116 113 212 138 113 171 182 170 206 237 213 279 320 285 204 204 230 242 259 217 226 310 306 322 317 263 218 190 157 166 176 179 184
240 240 235 224 213 215 222 227 222 196 168 133 150 211 221 216 177 184 202 175 180 160 117 28 83 136 249 278 268 249 221 239 151 142 206 214 215 211 204 218 194 175 169 168 203 174 193 272 281 342 312 160 187 264 121 138 178 166 136 177 216 181 134 150 281 333 71 294 273 264 266 274 310 291 212 125 302 273 309 325 225 196 178 169 185 186 183 188
225 235 227 217 213 208 212 221 207 186 161 135 202 221 217 208 190 184 180 153 157 132 127 198 202 178 219 240 230 219 183 238 181 167 213 232 233 198 201 247 198 186 193 178 207 212 190 267 263 137 210 251 241 253 348 12 127 128 179 213 197 120 90 108 273 339 40 252 270 294 281 283 299 296 283 68 272 255 260 261 221 204 193 193 199 191 188 189
215 232 235 225 215 200 203 212 192 170 128 150 225 237 210 199 206 182 168 151 123 110 137 206 216 186 193 206 232 202 173 197 181 169 202 222 247 189 165 220 207 192 202 174 201 240 146 254 279 116 210 292 5 71 307 344 82 127 195 214 131 140 149 104 158 245 209 240 269 290 295 282 265 247 263 231 228 237 237 215 201 206 205 204 201 192 189 186
205 229 268 230 214 203 200 199 181 163 148 197 226 240 205 205 232 210 184 161 130 139 176 220 220 192 180 180 200 194 184 195 173 177 206 193 237 213 168 203 193 177 207 156 174 218 120 208 274 351 272 301 19 133 196 229 59 91 250 324 59 167 174 163 173 190 174 224 268 298 314 287 256 195 208 214 208 216 215 201 205 209 207 205 197 189 189 189
186 224 275 203 205 203 192 182 172 176 202 213 222 225 186 205 240 233 215 194 183 184 197 215 202 207 210 185 192 191 192 206 180 188 221 196 225 239 210 201 157 135 21 89 153 179 104 197 245 326 336 264 194 206 194 187 177 169 206 227 217 169 135 216 217 168 163 216 253 285 291 278 260 153 193 207 198 208 207 200 208 211 210 207 197 191 191 193
166 229 233 178 189 187 174 169 192 200 212 226 228 223 212 216 220 236 233 209 212 226 162 175 195 203 194 185 206 187 180 207 192 194 231 214 218 239 214 187 153 144 108 75 154 194 158 188 200 183 242 213 221 237 206 194 187 183 197 200 196 183 151 233 250 217 173 217 225 163 269 271 265 139 185 192 185 208 206 197 204 211 210 204 198 197 193 193
178 224 186 171 178 171 161 183 219 201 221 227 224 224 221 222 211 219 229 207 214 240 195 196 207 202 194 191 195 184 180 203 198 200 233 221 214 224 208 176 154 149 147 139 196 196 138 134 189 215 221 220 244 274 232 223 240 225 220 194 183 183 171 200 235 225 172 231 225 111 263 266 264 108 181 188 191 216 202 191 202 211 211 201 197 199 195 194
202 197 125 166 175 169 164 218 217 215 239 226 230 241 225 229 224 207 205 202 205 210 218 229 203 197 219 208 185 193 196 206 203 195 219 233 223 220 189 161 151 146 147 154 177 153 104 125 211 259 293 326 317 324 353 29 31 258 242 192 180 205 200 203 220 181 154 225 189 121 253 260 272 69 258 200 181 229 192 192 207 209 209 202 196 197 195 193
193 167 91 171 178 177 184 213 204 216 228 219 228 234 227 234 231 214 200 199 200 192 207 223 202 198 223 202 196 210 194 204 224 206 210 229 233 214 177 166 165 168 181 194 176 173 191 174 182 248 293 314 322 324 320 324 234 234 239 194 201 221 212 187 73 127 241 238 205 199 253 258 263 73 283 317 289 236 211 208 217 213 203 201 198 196 195 189
164 170 84 178 185 190 210 215 192 209 217 215 225 227 228 244 233 219 212 208 207 190 197 224 201 195 208 182 199 216 196 211 233 222 216 226 244 252 188 183 188 189 197 200 162 164 184 180 174 206 233 243 248 237 217 216 210 226 236 206 210 216 205 197 209 221 243 238 209 219 250 261 264 225 133 274 251 236 237 230 228 227 213 202 198 195 193 189
170 195 174 175 192 206 230 222 188 209 213 207 221 223 221 234 240 220 213 218 219 200 207 238 195 185 198 184 200 220 215 221 229 231 227 214 216 264 197 189 207 206 186 147 152 152 152 189 202 210 217 226 240 240 193 137 164 204 212 209 212 213 206 203 219 231 235 225 212 234 245 263 270 260 243 262 256 240 235 233 227 224 213 201 200 198 193 190
192 212 189 166 183 212 226 222 204 215 205 175 191 214 216 227 240 228 208 210 206 198 220 239 205 194 205 195 200 218 219 221 227 232 234 215 198 302 13 162 231 236 197 159 170 150 122 220 221 219 225 230 241 246 209 154 204 225 221 216 212 210 199 194 215 228 226 199 245 248 247 257 266 265 261 264 263 254 232 225 221 217 208 201 199 193 188 188
198 220 190 173 181 198 209 214 202 199 198 184 198 227 232 230 229 222 209 195 189 193 208 230 218 215 215 201 197 218 220 222 231 232 232 220 191 207 2 249 236 221 183 179 227 166 151 233 232 222 233 238 244 250 236 211 233 243 247 241 217 198 196 201 217 227 222 223 247 255 258 258 261 267 267 262 262 258 240 226 215 213 204 193 190 186 186 190
200 248 201 182 195 199 203 209 197 193 204 208 213 231 239 238 230 219 184 160 204 206 204 220 224 221 219 206 196 213 218 219 228 228 222 218 209 195 221 256 245 189 176 182 241 197 168 237 239 227 240 246 244 248 246 245 252 257 260 255 226 195 207 210 220 229 228 235 247 257 263 263 263 267 269 266 265 260 245 221 199 202 194 186 191 192 192 196
203 220 192 188 215 211 207 207 191 193 207 207 216 228 232 238 236 224 169 177 207 210 204 221 231 225 215 210 210 224 226 221 227 229 203 197 212 204 212 225 186 124 199 192 209 245 209 234 242 219 243 254 248 244 240 244 251 256 262 260 241 217 225 225 225 232 234 241 249 254 260 264 266 266 267 270 272 255 238 217 204 202 190 190 196 195 196 201
214 202 163 173 235 209 204 201 184 197 210 200 214 227 228 236 236 228 210 207 213 213 201 216 232 233 213 210 218 229 233 229 233 238 213 196 208 208 212 208 161 148 197 192 167 204 205 230 274 135 230 256 254 223 212 245 311 267 262 260 248 231 232 234 231 229 229 237 248 254 255 257 263 267 267 268 257 236 232 223 211 204 195 195 198 198 202 203
213 196 167 199 237 200 193 201 185 199 214 204 213 223 223 233 234 223 229 228 221 223 213 209 225 231 214 216 222 228 235 237 237 241 227 205 220 227 222 193 172 169 176 176 179 183 179 203 214 165 226 257 259 106 107 62 19 266 257 253 243 232 230 238 242 238 232 231 239 247 246 249 257 264 269 266 247 229 228 220 206 204 203 200 201 203 203 200